Weather in Chapayevo

Russia / Astrakhan Oblast     45°58′40″N   48°16′17″E
temp.,
°C
wind,
m/s
gust,
m/s
humid.,
%
clouds,
%
prec.,
mm/h
press.,
hPa
HPBL,
m
1 august, sun
sun101:00+23sse226555 0.0 101213
04:00+23ese11645 0.0 101111
07:00+26ese11527 0.0 101285
10:00+33se45285 0.0 10121250
13:00+34sse542964 0.6 10111791
16:00+35sse5424100 0.7 10111549
19:00+33sse442577 0.0 1010475
22:00+26s33422 0.0 101120
2 august, mon
mon201:00+24ssw114545 0.0 101111
04:00+26ene1139100 0.0 101111
07:00+28ene233177 0.0 101296
10:00+36ese45175 0.0 10121160
13:00+38se661433 0.0 10122013
16:00+38ese6812100 0.0 10101665
19:00+33se57257 0.0 1011416
22:00+26se335639 0.0 101128
3 august, tue
tue301:00+26s224713 0.0 101114
04:00+25s01385 0.0 101111
07:00+28ene222772 0.0 101160
10:00+38se34115 0.0 10121170
13:00+40se6595 0.0 10112911
16:00+40sse65100 0.0 10101863
19:00+35sse45160 0.0 1010304
22:00+28s33280 0.0 101129
4 august, wed
wed401:00+27ssw33330 0.0 101027
04:00+24wsw12520 0.0 101011
07:00+28s11410 0.0 101140
10:00+37s34150 0.0 10111007
13:00+40s66100 0.0 10102807
16:00+40s65111 0.0 10102309
19:00+35sse56195 0.0 1010408
22:00+26w22445 0.0 101113
5 august, thu
thu501:00+25wnw33450 0.0 101120
04:00+25nnw22370 0.0 101011
07:00+28nne24325 0.0 1011103
10:00+35n7827100 0.0 10121468
13:00+34n9830100 0.0 10131847
16:00+32nnw653199 0.0 10131153
19:00+33nnw55310 0.0 10121342
22:00+27nne34430 0.0 101347